Change the Weather History Date:

Thursday, December 6, 2012

  Actual Average Record
Temperature  
Mean Temperature 56 °F -  
Max Temperature 80 °F 59 °F 82 °F (2007)
Min Temperature 33 °F 29 °F 9 °F (1950)
Degree Days  
Heating Degree Days 8    
Growing Degree Days 6 (Base 50)    
Moisture  
Dew Point 26 °F    
Average Humidity 39    
Maximum Humidity 73    
Minimum Humidity 12    
Precipitation  
Precipitation 0.00 in - - ()
Sea Level Pressure  
Sea Level Pressure 29.82 in    
Wind  
Wind Speed 6 mph (WNW)    
Max Wind Speed 12 mph    
Max Gust Speed -    
Visibility 10 miles    
Events      
Averages and records for this station are not official NWS values.
T = Trace of Precipitation, MM = Missing Value Source: NWS Daily Summary

Daily Weather History Graph

Daily Weather History Graph

Search for Another Location

Airport or City:

Trip Planner

Search our weather history database for the weather conditions in past years. The results will help you decide how hot, cold, wet, or windy it might be!

Date:

Astronomy

Dec. 06, 2012 Rise Set
Actual Time 7:39 AM CST 5:48 PM CST
Civil Twilight 7:12 AM CST 6:15 PM CST
Nautical Twilight 6:42 AM CST 6:45 PM CST
Astronomical Twilight 6:12 AM CST 7:15 PM CST
Moon 12:22 AM CST (12/6) 12:54 PM CST (12/6)
Length of Visible Light 11h 02m
Length of Day
10h 09m
Waning Gibbous, 49% of the Moon is Illuminated
Dec 6
Waning Gibbous
Dec 13
New
Dec 19
First Quarter
Dec 28
Full
Jan 4
Last Quarter

Hourly Weather History & Observations

Time (CST) Temp. Windchill Dew Point Humidity Pressure Visibility Wind Dir Wind Speed Gust Speed Precip Events Conditions
12:53 AM 44.1 °F 39.0 °F 30.0 °F 58% 29.89 in 10.0 mi SE 9.2 mph - N/A   Clear
1:53 AM 43.0 °F 38.8 °F 30.9 °F 62% 29.88 in 10.0 mi SE 6.9 mph - N/A   Clear
2:53 AM 43.0 °F - 30.9 °F 62% 29.88 in 10.0 mi Calm Calm - N/A   Clear
3:53 AM 39.9 °F 36.7 °F 30.0 °F 68% 29.86 in 10.0 mi SSE 4.6 mph - N/A   Clear
4:53 AM 39.0 °F - 30.0 °F 70% 29.85 in 10.0 mi Calm Calm - N/A   Clear
5:53 AM 34.0 °F 29.8 °F 26.1 °F 73% 29.87 in 10.0 mi NNW 4.6 mph - N/A   Clear
6:53 AM 33.1 °F 28.7 °F 25.0 °F 72% 29.89 in 10.0 mi North 4.6 mph - N/A   Clear
7:53 AM 33.1 °F 28.7 °F 25.0 °F 72% 29.90 in 10.0 mi North 4.6 mph - N/A   Clear
8:53 AM 42.1 °F - 27.0 °F 55% 29.89 in 10.0 mi Calm Calm - N/A   Clear
9:53 AM 54.0 °F - 30.9 °F 41% 29.88 in 10.0 mi NNW 3.5 mph - N/A   Clear
10:53 AM 66.9 °F - 30.9 °F 26% 29.86 in 10.0 mi WNW 9.2 mph - N/A   Clear
11:53 AM 72.0 °F - 28.9 °F 20% 29.83 in 10.0 mi WSW 11.5 mph - N/A   Clear
12:53 PM 75.0 °F - 28.0 °F 18% 29.78 in 10.0 mi West 11.5 mph - N/A   Clear
1:53 PM 79.0 °F - 25.0 °F 14% 29.75 in 10.0 mi WSW 11.5 mph - N/A   Clear
2:53 PM 80.1 °F - 25.0 °F 13% 29.73 in 10.0 mi WSW 8.1 mph - N/A   Clear
3:53 PM 80.1 °F - 23.0 °F 12% 29.73 in 10.0 mi WSW 8.1 mph - N/A   Clear
4:53 PM 79.0 °F - 21.9 °F 12% 29.72 in 10.0 mi West 4.6 mph - N/A   Clear
5:53 PM 73.9 °F - 24.1 °F 16% 29.74 in 10.0 mi Calm Calm - N/A   Clear
6:53 PM 63.0 °F - 24.1 °F 23% 29.77 in 10.0 mi Calm Calm - N/A   Clear
7:53 PM 60.1 °F - 23.0 °F 24% 29.79 in 9.0 mi West 10.4 mph - N/A   Clear
8:53 PM 57.9 °F - 23.0 °F 26% 29.80 in 10.0 mi Calm Calm - N/A   Clear
9:53 PM 52.0 °F - 21.9 °F 31% 29.79 in 10.0 mi North 6.9 mph - N/A   Clear
10:53 PM 48.9 °F - 19.9 °F 32% 29.78 in 10.0 mi South 3.5 mph - N/A   Clear
11:53 PM 48.0 °F - 19.9 °F 33% 29.76 in 10.0 mi North 3.5 mph - N/A   Clear